Orbital Elements at Epoch 2459200.5 (2020-Dec-17.0) TDB
Reference: JPL 13 (heliocentric ecliptic J2000)
Element | Value | Uncertainty (1-sigma) | Units |
e | .06197077724949752 | 5.0247e-08 | |
a | 1.935174719230309 | 7.1289e-09 | au |
q | 1.815250437766028 | 9.7816e-08 | au |
i | 19.05155657385859 | 5.9609e-06 | deg |
node | 348.7192235964927 | 1.169e-05 | deg |
peri | 326.1813029569203 | 4.2099e-05 | deg |
M | 103.9540763894901 | 4.1198e-05 | deg |
tp | 2458916.565789287822 (2020-Mar-08.06578929) | 0.00011248 | TDB |
period | 983.2833824948327 2.69 | 5.4334e-06 1.488e-08 | d yr |
n | .366120292897243 | 2.0231e-09 | deg/d |
Q | 2.055099000694589 | 7.5707e-09 | au |
|
| | Orbit Determination Parameters
Additional Information
|